チェルヌイフ彗星

101P/Chernykh (1992)

English version
Home page
Updated on September 23, 2007

---------------------------------------------------------------------

・ プロフィール

符号 101P/1991 L1
検出日 1991年6月8日
検出光度 20.3等
検出者 J. V. Scotti (Lunar and Planetary Laboratory)

・ 軌道要素

                    Epoch = 1992 Jan. 19.0 ET
     T = 1992 Jan. 25.4417 ET         Peri. = 263.1948
     e = 0.593637                     Node  = 129.7432  1950.0
     q = 2.356269 AU                  Incl. =   5.0821
       a =  5.798435 AU    n = 0.0705891    P =  13.963 years

・ 光度変化

	A核:
        m1 = 10.0 + 5 logΔ + 12.0 log r

	B核:
        m1 = 12.5 + 5 logΔ + 12.0 log r

---------------------------------------------------------------------

軌道要素は Dr. Brian G. Marsden の計算によるもので、 IAUC 5285 に掲載されたものです。
光度グラフはComet for Windowsで作成したものです。

---------------------------------------------------------------------

Copyright(C) Seiichi Yoshida (comet@aerith.net). All rights reserved.